Terminal Aerodrome Forecast
Issued by NWS Chicago, IL

Home | Current Version | Previous Version | Text Only | Print | Product List | Glossary Off
Versions: 1 2 3 4 5 6 7 8 9 10 11 12 13 14 15 16 17 18 19 20 21 22 23 24 25 26 27 28 29 30 31 32 33 34 35

000
FTUS43 KLOT 292200 AAD
TAFRFD
TAF AMD
KRFD 292205Z 2922/3018 29008KT P6SM SCT060
     FM300000 02012G17KT P6SM BKN060
     FM300300 03012G17KT 6SM HZ SCT007 OVC010
     FM300700 03007KT 6SM BR OVC010
     FM301400 05008KT P6SM BKN015=

USA.gov is the U.S. government's official web portal to all federal, state and local government web resources and services.